Regional Weather Roundup
Issued by NWS Huntsville, AL

Home | Current Version | Previous Version | Text Only | Print | Product List | Glossary On
Versions: 1 2 3 4 5 6 7 8 9 10 11 12 13 14 15 16 17 18 19 20 21 22 23 24 25 26 27
000
ASUS44 KHUN 310710
RWRHUN

WEATHER ROUNDUP FOR THE TENNESSEE VALLEY
NATIONAL WEATHER SERVICE HUNTSVILLE AL
200 AM CDT WED AUG 31 2016

ALZ001>004-310800-
NORTHWEST ALABAMA

CITY           SKY/WX    TMP DP  RH WIND       PRES   REMARKS
SHOALS AIRPORT CLEAR     72  69  90 CALM      30.03R
$$

ALZ005>007-016-310800-
NORTH CENTRAL ALABAMA

CITY           SKY/WX    TMP DP  RH WIND       PRES   REMARKS
DECATUR AP     CLEAR     72  70  93 CALM      30.02S
HUNTSVILLE AP  CLEAR     74  69  85 CALM      30.02S
MERIDIANVILLE  CLEAR     70  64  83 CALM      30.03S
REDSTONE ARSN  CLEAR     74  70  87 CALM      30.01S
VINEMONT AP    FAIR      68  67  94 CALM      30.05S
$$

ALZ008>010-310800-
NORTHEAST ALABAMA

CITY           SKY/WX    TMP DP  RH WIND       PRES   REMARKS
ALBERTVILLE    CLOUDY    73  72  94 CALM      30.02S
FORT PAYNE     MOCLDY    70  64  83 CALM      30.03F
SCOTTSBORO AP  PTCLDY    72  68  88 CALM      30.04S
SCOTTSBORO HCN   N/A     70 N/A N/A MISG        N/A
VALLEY HEAD      N/A     70 N/A N/A MISG        N/A
$$

TNZ076-096-097-310800-
SOUTHEASTERN MIDDLE TENNESSEE

CITY           SKY/WX    TMP DP  RH WIND       PRES   REMARKS
TULLAHOMA      CLEAR     70  66  88 CALM      30.06S
WINCHESTER     PTCLDY    70  68  94 CALM      30.05S
$$

...SURROUNDING SITES...

CITY           SKY/WX    TMP DP  RH WIND       PRES   REMARKS
ATLANTA        CLEAR     76  69  79 E5        30.03S
ANNISTON       CLEAR     75  68  78 E5        30.01S
BIRMINGHAM     MOCLDY    80  67  64 E3        30.02S
CHATTANOOGA    PTCLDY    75  68  78 CALM      30.03S
DALTON         PTCLDY    72  68  88 CALM      30.03S
GADSDEN        PTCLDY    72  69  90 CALM      30.02S
GOLDEN TRNGL   CLEAR     77  64  65 NE8       29.96S
JACKSON TN     CLEAR     74  74 100 CALM      30.02S
MEMPHIS        CLEAR     82  71  69 NE5       30.00S
NASHVILLE      CLEAR     76  73  91 CALM      30.03S
OXFORD MS      FAIR      77  68  73 E7        30.01F
ROME           CLEAR     71  67  87 CALM      30.02S
SAVANNAH       PTCLDY    72  72 100 CALM      30.00F FOG
TUPELO         CLEAR     75  70  84 N7        29.99S
TUSCALOOSA     CLEAR     76  70  82 CALM      29.97S
$$

...GULF COAST WEATHER...

CITY           SKY/WX    TMP DP  RH WIND       PRES   REMARKS
GULFPORT       CLEAR     78  73  84 N5        29.89S
PASCAGOULA     CLEAR     76  75  97 N6        29.89S
MOBILE         CLEAR     77  72  84 NE7       29.91S
GULF SHORES    SUNNY     77  73  88 NE6       29.88F
PENSACOLA      CLEAR     81  73  76 NE7       29.88S
DESTIN         CLEAR     82  74  76 E8        29.90R
PANAMA CITY    CLEAR     78  72  83 NE5       29.89F
APPALACHICOLA  PTCLDY    77  76  96 NE9       29.87S
$$





USA.gov is the U.S. government's official web portal to all federal, state and local government web resources and services.